sat.trackr.live / text

‹ back to catalog

STARLINK-36529

NORAD 67457 · 2026-008N

PAYLOAD ACTIVE UNKNOWN

§ Identity

Operator
Country
US
Launch date
2026-01-14
Launch site
AFETR
Launch vehicle
Mass (kg)
RCS (m²)

Purposes: comms

External: N2YO · Heavens-Above · Gunter

§ Orbital elements

Epoch: 2026-05-25T00:28:04.558080Z

Period
94.27 min
Inclination
43.0050°
Eccentricity
0.0002723
Mean motion
15.27597425 rev/d
Perigee alt
481.1 km
Apogee alt
484.9 km
Semi-major
6,861.1 km
B*
7.3184e-4
RAAN
134.3522°
Arg perigee
269.3850°
Mean anomaly
90.6690°
Rev number
2,124

§ Raw data

STARLINK-365291 67457U 26008N   26145.01949720  .00019943  00000+0  73184-3 0  99962 67457  43.0050 134.3522 0002723 269.3850  90.6690 15.27597425 21246

JSON: /api/v1/satellites/67457 · /tle

For live sub-satellite position, see the globe view (requires WebGL).

§ Visibility from observer

Set your observer location to see the next 7 days of passes ≥ 10°. The values pass through the URL so the page stays shareable.

No JS? Fill the form by hand. The geolocation button needs JavaScript.